+ View the NASA Portal
+ Center for Near-Earth Object Studies
JPL Small-Body Database Browser
Search:
[
help
]
17010 (1999 CQ72)
Classification:
Main-belt Asteroid
SPK-ID:
2017010
[
Ephemeris
|
Orbit Diagram
|
Orbital Elements
|
Mission Design
|
Physical Parameters
|
Discovery Circumstances
|
Close-Approach Data
]
[ show orbit diagram ]
Orbital Elements at Epoch 2459200.5 (2020-Dec-17.0) TDB
Reference:
JPL 41
(heliocentric ecliptic J2000)
Element
Value
Uncertainty (1-sigma)
Units
e
.2286196429162107
3.5334e-08
a
2.607639476091687
1.1665e-08
au
q
2.011481870213391
9.6199e-08
au
i
12.65356655865584
4.1538e-06
deg
node
210.563872021853
1.6363e-05
deg
peri
31.55937713183687
1.9075e-05
deg
M
359.539211205815
1.2598e-05
deg
t
p
2459202.468652921654
(2020-Dec-18.96865292)
5.3833e-05
TDB
period
1538.047497550433
4.21
1.0321e-05
2.826e-08
d
yr
n
.2340629925755564
1.5707e-09
deg/d
Q
3.203797081969983
1.4332e-08
au
Orbit Determination Parameters
# obs. used (total)
2235
data-arc span
10667 days (29.20 yr)
first obs. used
1991-05-03
last obs. used
2020-07-16
planetary ephem.
DE441
SB-pert. ephem.
SB441-N16
condition code
0
norm. resid. RMS
.48362
source
ORB
producer
Otto Matic
solution date
2021-Apr-13 01:50:55
Additional Information
Earth MOID
= 1.00977 au
Jupiter MOID
= 1.82853 au
T_jup
= 3.340
[ show covariance matrix ]
[
Ephemeris
|
Orbit Diagram
|
Orbital Elements
|
Mission Design
|
Physical Parameters
|
Discovery Circumstances
|
Close-Approach Data
]
Physical Parameter Table
Parameter
Symbol
Value
Units
Sigma
Reference
Notes
absolute magnitude
H
13.38
n/a
E2021B10
diameter
diameter
6.224
km
0.344
urn:nasa:pds:neowise_diameters_albedos::2.0[mainbelt] (http://adsabs.harvard.edu/abs/2011ApJ...741...68M)
rotation period
rot_per
15.781
h
n/a
LCDB (Rev. 2020-October); Warner et al., 2009
Published Reference List:
[Warner, B.D. (2009) Minor Planet Bull. 36, 7-13.]
[Pal, A.; Szakats, R.; Kiss, C.; Bodi, A.; et al. (2019) Ap. J. Supl. Ser. 247, id.26.]
geometric albedo
albedo
0.239
0.031
urn:nasa:pds:neowise_diameters_albedos::2.0[mainbelt] (http://adsabs.harvard.edu/abs/2011ApJ...741...68M)
17010 (1999 CQ72)
Discovered 1999-Feb-12 by LINEAR at Socorro
Reference:
20000913/Numbers.arc
Last Updated:
2004-04-19
[ show close-approach data ]
Alternate Designations
1999 CQ72
= 1991 JQ = 1996 TO55 = 1997 XB11
[
Ephemeris
|
Orbit Diagram
|
Orbital Elements
|
Mission Design
|
Physical Parameters
|
Discovery Circumstances
|
Close-Approach Data
]
2021-Apr-19 15:08 UT
(server date/time)
Site Manager:
Ryan S. Park
Webmaster
:
Alan B. Chamberlin